Change the Weather History Date:

Tuesday, October 2, 2012

  Actual Average Record
Temperature  
Mean Temperature 60 °F 56 °F  
Max Temperature 72 °F 69 °F 90 °F (1970)
Min Temperature 47 °F 44 °F 29 °F (1950)
Degree Days  
Heating Degree Days 5 9  
Month to date heating degree days 5 17  
Since 1 July heating degree days 137 233  
Cooling Degree Days 0 0  
Month to date cooling degree days 1 0  
Year to date cooling degree days 300 214  
Growing Degree Days 10 (Base 50)    
Moisture  
Dew Point 45 °F    
Average Humidity 63    
Maximum Humidity 86    
Minimum Humidity 40    
Precipitation  
Precipitation 0.00 in 0.07 in 1.14 in (1951)
Month to date precipitation 0.00 0.13  
Year to date precipitation 28.45 23.84  
Snow  
Snow 0.00 in - - ()
Month to date snowfall 0.0  
Snow Depth 0.00 in    
Sea Level Pressure  
Sea Level Pressure 30.16 in    
Wind  
Wind Speed 5 mph (North)    
Max Wind Speed 14 mph    
Max Gust Speed 56 mph    
Visibility 10 miles    
Events      
T = Trace of Precipitation, MM = Missing Value Source: NWS Daily Summary

Daily Weather History Graph

Daily Weather History Graph

Search for Another Location

Airport or City:

Trip Planner

Search our weather history database for the weather conditions in past years. The results will help you decide how hot, cold, wet, or windy it might be!

Date:

Astronomy

Oct. 02, 2012 Rise Set
Actual Time 7:12 AM PDT 6:49 PM PDT
Civil Twilight 6:43 AM PDT 7:19 PM PDT
Nautical Twilight 6:09 AM PDT 7:53 PM PDT
Astronomical Twilight 5:34 AM PDT 8:27 PM PDT
Moon 7:56 PM PDT (10/2) 9:54 AM PDT (10/2)
Length of Visible Light 12h 35m
Length of Day
11h 37m
Waning Gibbous, 93% of the Moon is Illuminated
Oct 2
Waning Gibbous
Oct 8
Last Quarter
Oct 15
New
Oct 21
First Quarter
Oct 29
Full

Hourly Weather History & Observations

Time (PDT) Temp. Dew Point Humidity Pressure Visibility Wind Dir Wind Speed Gust Speed Precip Events Conditions
12:53 AM 55.9 °F 51.1 °F 84% 30.13 in 10.0 mi Calm Calm - N/A   Clear
1:53 AM 57.0 °F 52.0 °F 83% 30.14 in 10.0 mi Variable 3.5 mph - N/A   Clear
2:53 AM 57.0 °F 52.0 °F 83% 30.16 in 10.0 mi North 5.8 mph - N/A   Clear
3:53 AM 55.0 °F 44.1 °F 67% 30.17 in 10.0 mi North 5.8 mph - N/A   Clear
4:53 AM 53.1 °F 42.1 °F 66% 30.17 in 10.0 mi North 4.6 mph - N/A   Clear
5:53 AM 51.1 °F 43.0 °F 74% 30.18 in 10.0 mi NNW 6.9 mph - N/A   Clear
6:53 AM 48.9 °F 43.0 °F 80% 30.19 in 10.0 mi NW 5.8 mph - N/A   Clear
7:53 AM 50.0 °F 44.1 °F 80% 30.19 in 10.0 mi North 4.6 mph - N/A   Clear
8:53 AM 54.0 °F 45.0 °F 72% 30.19 in 10.0 mi NNW 3.5 mph - N/A   Clear
9:53 AM 59.0 °F 46.9 °F 64% 30.20 in 10.0 mi Variable 4.6 mph - N/A   Clear
10:53 AM 62.1 °F 46.9 °F 58% 30.19 in 10.0 mi North 3.5 mph - N/A   Clear
11:53 AM 63.0 °F 48.0 °F 58% 30.18 in 10.0 mi East 3.5 mph - N/A   Clear
12:53 PM 64.9 °F 48.0 °F 54% 30.17 in 10.0 mi Calm Calm - N/A   Clear
1:53 PM 66.9 °F 48.0 °F 51% 30.15 in 10.0 mi West 3.5 mph - N/A   Clear
3:53 PM 71.1 °F 48.0 °F 44% 30.12 in 10.0 mi East 5.8 mph - N/A   Clear
4:53 PM 72.0 °F 48.0 °F 43% 30.11 in 10.0 mi ENE 3.5 mph - N/A   Clear
5:53 PM 69.1 °F 48.9 °F 49% 30.10 in 10.0 mi East 5.8 mph - N/A   Clear
6:53 PM 64.9 °F 48.0 °F 54% 30.10 in 10.0 mi East 4.6 mph - N/A   Clear
7:53 PM 59.0 °F 46.9 °F 64% 30.13 in 10.0 mi Calm Calm - N/A   Clear
8:53 PM 57.0 °F 34.0 °F 42% 30.16 in 10.0 mi North 10.4 mph - N/A   Clear
9:53 PM 55.0 °F 34.0 °F 45% 30.18 in 10.0 mi North 10.4 mph - N/A   Clear
10:53 PM 52.0 °F 35.1 °F 53% 30.18 in 10.0 mi NNW 4.6 mph - N/A   Clear
11:53 PM 48.0 °F 35.1 °F 61% 30.18 in 10.0 mi Calm Calm - N/A   Clear